This is the latest recevied weather packets stored in our database for station/object KC4GS-13. If no packets are shown the sender has not sent any weather packets the latest 10 day(s).
| Time | Temp. | Humidity | Pressure | Rain* | Wind** | Luminosity | Snow |
|---|---|---|---|---|---|---|---|
| 1778365329 | 22.78° C | 79% | 1012.7 hPa | 0 mm | - | 88 W/m² | - |
| 1778365025 | 23.33° C | 79% | 1012.9 hPa | 0 mm | - | 95 W/m² | - |
| 1778364721 | 23.33° C | 79% | 1012.7 hPa | 0 mm | - | 108 W/m² | - |
| 1778364417 | 23.33° C | 80% | 1012.6 hPa | 0 mm | - | 111 W/m² | - |
| 1778364109 | 23.33° C | 79% | 1012.8 hPa | 0 mm | - | 124 W/m² | - |
| 1778363804 | 23.33° C | 79% | 1012.3 hPa | 0 mm | - | 147 W/m² | - |
| 1778363501 | 23.33° C | 80% | 1012.6 hPa | 0 mm | - | 128 W/m² | - |
| 1778363198 | 23.33° C | 79% | 1012.7 hPa | 0 mm | - | 121 W/m² | - |
| 1778362895 | 23.33° C | 79% | 1012.4 hPa | 0 mm | - | 78 W/m² | - |
| 1778362591 | 23.33° C | 78% | 1012.5 hPa | 0 mm | - | 87 W/m² | - |
| 1778362287 | 23.33° C | 79% | 1012.3 hPa | 0 mm | - | 115 W/m² | - |
| 1778361985 | 23.33° C | 78% | 1012.4 hPa | 0 mm | - | 128 W/m² | - |
| 1778361682 | 23.33° C | 78% | 1012.3 hPa | 0 mm | - | 108 W/m² | - |
| 1778361378 | 23.33° C | 77% | 1012.3 hPa | 0 mm | - | 117 W/m² | - |
| 1778361074 | 23.33° C | 78% | 1012.2 hPa | 0 mm | - | 146 W/m² | - |
| 1778360771 | 23.33° C | 78% | 1012.2 hPa | 0 mm | - | 151 W/m² | - |
| 1778360468 | 23.33° C | 78% | 1012.4 hPa | 0 mm | - | 162 W/m² | - |
| 1778360162 | 23.33° C | 78% | 1012.2 hPa | 0 mm | - | 186 W/m² | - |
| 1778359858 | 23.33° C | 78% | 1012.1 hPa | 0 mm | - | 174 W/m² | - |
| 1778359554 | 23.33° C | 77% | 1012.5 hPa | 0 mm | - | 178 W/m² | - |
| 1778359251 | 23.33° C | 77% | 1012.5 hPa | 0 mm | - | 220 W/m² | - |
| 1778358946 | 23.33° C | 78% | 1012.5 hPa | 0 mm | - | 278 W/m² | - |
| 1778358645 | 23.33° C | 78% | 1012.8 hPa | 0 mm | - | 214 W/m² | - |
| 1778358339 | 23.33° C | 78% | 1012.7 hPa | 0 mm | - | 178 W/m² | - |
| 1778358035 | 22.78° C | 78% | 1012.7 hPa | 0 mm | - | 171 W/m² | - |
* Rain latest hour (hover to see other rain measurements)
** Current wind speed in m/s (hover to see current wind gust speed)